Timeline UpdatesTrip UpdatesNews PostsPvt Posts♥♥Travel TipsAdmin PostsConv PostsFollowed PostsChat RequestsBlog PostsPNR Posts

Disclaimer
Search
 
 
Sat Nov 22, 2014 07:24:14 ISTHomeTrainsΣChainsAtlasPNRForumGalleryNewsFAQTripsMembersLoginFeedback
PNR Super Search

Ticket PNR Status Inquiry - PNR: 641-xxxxxxx (E-Ticket)

OLD STATUS

Status Last Updated on: Jun 08 2012 (12:46AM) IST

Date of Journey: Tue Jun 05, 2012   Class: Sleeper - SL   (Total Seats available for this Class/Quota: Avbl 172)
Passenger 1: S3,43/Coach Position:7 (Booking Status: W/L 10,CK)
Passenger 2: S3,44/Coach Position:7 (Booking Status: W/L 11,CK)
Chart PREPARED

Mithila Express/13021

Travel Time: 15h 3m    37 halts    Distance: 643 km    Avg Speed: 42 km/hr
Type: Mail/Express
Zone: ER/Eastern
Departs @ 15:45 (Avg 1m late)
Platform# 8
SMTWTFS
Kolkata Howrah Junction/HWH 
Arrives @ 06:48 +1 night (Avg 42m late)
Platform# 1
SMTWTFS
Bapudham Motihari/BMKI 

37 halts. 138 intermediate Stations between Kolkata Howrah Junction and Bapudham Motihari

Show ALL intermediate Stations  Show Old Time-Table

#TrkCodeStation NameX/OArrivesAvgDepartsAvgHaltPFDay#KmSpeedElevZoneAddress
1/==/HWHKolkata Howrah Junction (23)»  -15:45+1810.05110mERHowrah 711101, West Bengal
2/==/SRPSerampore (4)  16:08+416:09+101m2119.51411mERdist - hooghly, West Bengal
3/==/SHESeoraphuli Junction (6)  16:20+416:25+25m4122.17113mERBaidyabati, West Bengal
4/==/CGRChandan Nagar (3)  16:34+416:35+51m1132.73416mERDist -HOOGHLY - 712136, West Bengal
5/==/BDCBandel Junction (7)  16:47+416:52+55m2139.55214mERdist - HOOGHLY, West Bengal
6/==/BWNBarddhaman Junction (8)  18:10-218:14+14m21106.78734mERDist - Barddhaman, West Bengal
7/==/PANPanagarh (4)  18:47+1118:48+121m21154.75870mERKaksa, West Bengal
8/==/DGRDurgapur (5)XO  19:04+819:09+75m--1170.36671mERDurgapur, West Bengal
9/==/OYRWaria (4)  19:17+1019:18+101m--1179.149 ERDurgapur, West Bengal
10/==/UDLAndal Junction (6)X  19:28+619:30+62m11187.35586mERAndal, West Bengal
11/==/RNGRaniGanj (4)  19:38+819:39+91m41194.64592mERRaniganj, West Bengal
12/==/ASNAsansol Junction (7)X  20:03+420:08+55m31212.744113mERDist - Bardhaman, West Bengal
13/==/STNSitarampur Junction (5)  20:20+920:22+102m--1221.564139mERG T Rd Before Asansol, West Bengal
14/==/RNPRRupnarayanpur (3)X  20:33+1420:34+161m--1233.230191mERChittaranjan, West Bengal
15/==/CRJChittaranjan (3)  20:43+1320:46+123m31237.861182mERMihijam, Jharkhand
16/==/JMTJamtara (2)X  21:00+1221:01+151m11252.160201mERJamtara, Jharkhand
17/==/VDSVidyasagar (2)X  21:19+1521:20+161m--1270.063250mERJamtara, Jharkhand
18/==/MDPMadhupur Junction (4)X  21:43+1521:47+144m21294.273254mER06432-224478, Jharkhand
19/==/JSMEJasidih Junction (5)X  22:11+1522:16+145m31323.241271mERJasidih, Jharkhand
20/==/JAJJhajha (4)X  23:21+223:26+35m--1367.482143mECRJhajha, Bihar
21/==/KIULKiul Junction (5)X  00:05+1800:10+165m--2420.62753mECRDist. Lakhisarai, Bihar
22/==/BJUBarauni Junction (9)X01:38+1402:00+1622m82459.93749mECRBegusarai, Bihar
23/==/TGATeghra (3)  02:11 02:12+2002:13+262 1m--2467.24148mECRBegusarai, Bihar
24/--/BCABachwara Junction (3)X  02:24 02:26+2402:26 02:27+242 1m--2476.15149mECRBegusarai, Bihar
25/==/DSSDalsingh Sarai (2)  02:38 02:40+2402:40 02:41+252 1m12487.165 ECR06278-221238, Bihar
26/==/UJPUjiarpur (2)  02:52 02:54+2502:54 02:55+262 1m--2501.32751mECRSamastipur, Bihar
27/==/SPJSamastipur Junction (9)  03:15+2003:25+1910m--2510.33155mECRSamastipur, Bihar
28/==/KPGMKarpurigram (3)  03:36 03:37+2103:38+222 1m--2516.65551mECRState Highway 49, Bihar
29/==/KRBPKhudiram B Pusa (2)  03:45 03:46+2203:47+232 1m--2524.04952mECRDistt. Samastipur, Bihar
30/==/DUBHDubaha (2)X  03:55 03:56+2103:57+222 1m--2531.34555mECRDubha Station, Bihar
31/==/DOLDholi (2)X  04:00 04:05+2104:06+226 1m--2537.351 ECRDistt. Muzaffarpur, Bihar
32/==/SIHOSiho (2)X  04:13 04:14+2104:15+222 1m12544.25853mECRNational Highway 28, Bihar
33/==/SLTSilaut (2)  04:22 04:23+2204:24+232 1m--2552.04357mECRMuzaffarpur, Bihar
34/==/NRPANarayanpur Anant (3)X  04:31 04:32+2204:33+252 1m--2557.61156mECRMuzaffarpur, Bihar
35/==/MFPMuzaffarpur Junction (6)  05:00+1305:15+2115m32562.57857mECRMuzaffarpur, Bihar
36|--|MTRMotipur (1)  05:35+3705:37+372m12588.67362mECRRatanpura, Bihar
37|--|MAIMehsi (1)  05:48+4205:50+432m12601.95264mECRMehsi, Bihar
38|--|CAAChakia (1)  06:00+4606:02+462m12610.64266mECRChakia, Bihar
39|--|BMKIBapudham Motihari (2)•X  06:47 06:48+4206:52 06:54+445 6m12642.75972mECRMotihari, Bihar
40|--|SGLSagauli (3)X07:15+4807:40+4725m12663.26973mECRSugauli, Bihar
41|--|RGHRamgarhwa (1)  07:53+4707:55+472m12678.32475mECRRamgarhwa, Bihar
42|--|RXLRaxaul Junction (5)  08:30+37-12692.4-88mECREast Champaran, Bihar
Scroll to Top
Scroll to Bottom